When you browse on this site, cookies collect data to enhance your experience and personalize the content and advertising you see.
Visit our Privacy Policy to learn more. By continuing to use the site, you agree to this use of cookies and data.
  • In United Kingdom
  • List of Countries
  • For 7 days
  • Water Temperature
  • Weather Map
  • Weather Widgets
  • user-avatar
    Login

    Hourly Weather Hilvan

    Today, 15 December, Sunday

    Time Temperature Precipitation Wind Pressure Humidity
    00:00 +9°C° 1.9 mm 2 mps 710 mmHg 95%
    01:00 +9°C° 1.3 mm 2 mps 710 mmHg 95%
    02:00 +9°C° 1.3 mm 2 mps 710 mmHg 95%
    03:00 +9°C° 0 mm 2 mps 710 mmHg 95%
    04:00 +8°C° 0.2 mm 2 mps 710 mmHg 94%
    05:00 +8°C° 0.2 mm 2 mps 710 mmHg 94%
    06:00 +8°C° 0.2 mm 2 mps 710 mmHg 94%
    07:00 +8°C° 0.1 mm 2 mps 710 mmHg 93%
    08:00 +8°C° 0.1 mm 2 mps 711 mmHg 92%
    09:00 +9°C° 0 mm 2 mps 711 mmHg 90%
    10:00 +10°C° 0.1 mm 2 mps 711 mmHg 83%
    11:00 +12°C° 0.1 mm 2 mps 711 mmHg 77%
    12:00 +13°C° 0.1 mm 2 mps 711 mmHg 70%
    13:00 +13°C° 0.2 mm 2 mps 711 mmHg 68%
    14:00 +14°C° 0.2 mm 1 mps 711 mmHg 66%
    15:00 +14°C° 0.2 mm 1 mps 711 mmHg 63%
    16:00 +13°C° 0 mm 1 mps 711 mmHg 68%
    17:00 +12°C° 0 mm 1 mps 711 mmHg 73%
    18:00 +11°C° 0 mm 1 mps 711 mmHg 78%
    19:00 +11°C° 0 mm 1 mps 711 mmHg 78%
    20:00 +11°C° 0 mm 1 mps 712 mmHg 78%
    21:00 +10°C° 0 mm 1 mps 712 mmHg 78%
    22:00 +10°C° 0 mm 1 mps 712 mmHg 79%
    23:00 +10°C° 0 mm 1 mps 712 mmHg 79%

    Tomorrow, 16 December, Monday

    Time Temperature Precipitation Wind Pressure Humidity
    00:00 +9°C° 0 mm 1 mps 712 mmHg 79%
    01:00 +9°C° 0 mm 1 mps 712 mmHg 80%
    02:00 +9°C° 0 mm 1 mps 712 mmHg 80%
    03:00 +9°C° 0 mm 1 mps 712 mmHg 81%
    04:00 +8°C° 0 mm 1 mps 712 mmHg 81%
    05:00 +8°C° 0 mm 1 mps 712 mmHg 81%
    06:00 +8°C° 0 mm 1 mps 712 mmHg 81%
    07:00 +8°C° 0 mm 1 mps 712 mmHg 79%
    08:00 +9°C° 0 mm 1 mps 713 mmHg 78%
    09:00 +9°C° 0 mm 1 mps 713 mmHg 77%
    10:00 +11°C° 0 mm 1 mps 713 mmHg 71%
    11:00 +12°C° 0 mm 2 mps 713 mmHg 66%
    12:00 +13°C° 0 mm 2 mps 713 mmHg 61%
    13:00 +13°C° 0 mm 2 mps 712 mmHg 60%
    14:00 +13°C° 0 mm 3 mps 712 mmHg 58%
    15:00 +13°C° 0 mm 3 mps 711 mmHg 57%
    16:00 +12°C° 0 mm 3 mps 711 mmHg 61%
    17:00 +11°C° 0 mm 3 mps 711 mmHg 65%
    18:00 +10°C° 0 mm 2 mps 711 mmHg 70%
    19:00 +9°C° 0 mm 2 mps 711 mmHg 70%
    20:00 +9°C° 0 mm 2 mps 712 mmHg 71%
    21:00 +8°C° 0 mm 2 mps 712 mmHg 71%
    22:00 +8°C° 0 mm 2 mps 712 mmHg 71%
    23:00 +8°C° 0 mm 2 mps 712 mmHg 72%

    Day after tomorrow, 17 December, Tuesday

    Time Temperature Precipitation Wind Pressure Humidity
    00:00 +7°C° 0 mm 2 mps 712 mmHg 72%
    01:00 +7°C° 0 mm 3 mps 712 mmHg 72%
    02:00 +7°C° 0 mm 3 mps 712 mmHg 72%
    03:00 +7°C° 0 mm 3 mps 712 mmHg 72%
    04:00 +7°C° 0 mm 3 mps 712 mmHg 72%
    05:00 +5°C° 0 mm 3 mps 712 mmHg 72%
    06:00 +5°C° 0 mm 3 mps 712 mmHg 72%
    07:00 +5°C° 0 mm 3 mps 712 mmHg 71%
    08:00 +7°C° 0 mm 3 mps 713 mmHg 70%
    09:00 +7°C° 0 mm 2 mps 713 mmHg 68%
    10:00 +9°C° 0 mm 3 mps 713 mmHg 62%
    11:00 +10°C° 0 mm 3 mps 713 mmHg 56%
    12:00 +12°C° 0 mm 3 mps 713 mmHg 50%
    13:00 +13°C° 0 mm 3 mps 713 mmHg 48%
    14:00 +14°C° 0 mm 2 mps 713 mmHg 47%
    15:00 +15°C° 0 mm 1 mps 713 mmHg 45%
    16:00 +13°C° 0 mm 2 mps 713 mmHg 49%
    17:00 +12°C° 0 mm 2 mps 713 mmHg 54%
    18:00 +9°C° 0 mm 2 mps 713 mmHg 58%
    19:00 +9°C° 0 mm 2 mps 714 mmHg 58%
    20:00 +8°C° 0 mm 2 mps 714 mmHg 57%
    21:00 +8°C° 0 mm 2 mps 715 mmHg 56%
    22:00 +7°C° 0 mm 2 mps 715 mmHg 57%
    23:00 +7°C° 0 mm 2 mps 715 mmHg 57%

    18 December, Wednesday

    Time Temperature Precipitation Wind Pressure Humidity
    00:00 +7°C° 0 mm 2 mps 715 mmHg 57%
    01:00 +7°C° 0 mm 2 mps 715 mmHg 56%
    02:00 +7°C° 0 mm 2 mps 715 mmHg 56%
    03:00 +6°C° 0 mm 2 mps 715 mmHg 56%
    04:00 +6°C° 0 mm 2 mps 715 mmHg 56%
    05:00 +6°C° 0 mm 2 mps 715 mmHg 56%
    06:00 +6°C° 0 mm 2 mps 716 mmHg 56%
    07:00 +6°C° 0 mm 2 mps 716 mmHg 57%
    08:00 +7°C° 0 mm 2 mps 716 mmHg 57%
    09:00 +7°C° 0 mm 2 mps 717 mmHg 58%
    10:00 +9°C° 0 mm 2 mps 717 mmHg 53%
    11:00 +12°C° 0 mm 2 mps 717 mmHg 49%
    12:00 +13°C° 0 mm 2 mps 717 mmHg 44%
    13:00 +14°C° 0 mm 2 mps 717 mmHg 44%
    14:00 +14°C° 0 mm 2 mps 716 mmHg 44%
    15:00 +15°C° 0 mm 1 mps 716 mmHg 44%
    16:00 +13°C° 0 mm 1 mps 716 mmHg 49%
    17:00 +12°C° 0 mm 1 mps 716 mmHg 54%
    18:00 +10°C° 0 mm 1 mps 716 mmHg 58%
    19:00 +10°C° 0 mm 1 mps 716 mmHg 59%
    20:00 +10°C° 0 mm 1 mps 717 mmHg 59%
    21:00 +9°C° 0 mm 1 mps 717 mmHg 59%
    22:00 +9°C° 0 mm 1 mps 717 mmHg 59%
    23:00 +9°C° 0 mm 1 mps 717 mmHg 59%

    19 December, Thursday

    Time Temperature Precipitation Wind Pressure Humidity
    00:00 +8°C° 0 mm 1 mps 717 mmHg 59%
    01:00 +8°C° 0 mm 1 mps 717 mmHg 58%
    02:00 +8°C° 0 mm 1 mps 717 mmHg 57%
    03:00 +8°C° 0 mm 1 mps 717 mmHg 57%
    04:00 +8°C° 0 mm 1 mps 716 mmHg 56%
    05:00 +7°C° 0 mm 1 mps 716 mmHg 56%
    06:00 +7°C° 0 mm 1 mps 716 mmHg 55%
    07:00 +8°C° 0 mm 1 mps 716 mmHg 55%
    08:00 +8°C° 0 mm 1 mps 717 mmHg 55%
    09:00 +9°C° 0 mm 1 mps 717 mmHg 55%
    10:00 +10°C° 0 mm 1 mps 717 mmHg 51%
    11:00 +12°C° 0 mm 1 mps 717 mmHg 46%
    12:00 +14°C° 0 mm 1 mps 717 mmHg 41%
    13:00 +14°C° 0 mm 1 mps 717 mmHg 42%
    14:00 +15°C° 0 mm 1 mps 716 mmHg 42%
    15:00 +15°C° 0 mm 1 mps 716 mmHg 42%
    16:00 +14°C° 0 mm 1 mps 716 mmHg 47%
    17:00 +12°C° 0 mm 1 mps 716 mmHg 52%
    18:00 +11°C° 0 mm 1 mps 716 mmHg 56%
    19:00 +10°C° 0 mm 1 mps 716 mmHg 57%
    20:00 +10°C° 0 mm 1 mps 716 mmHg 57%
    21:00 +9°C° 0 mm 1 mps 716 mmHg 58%
    22:00 +9°C° 0 mm 1 mps 716 mmHg 58%
    23:00 +9°C° 0 mm 1 mps 716 mmHg 58%

    20 December, Friday

    Time Temperature Precipitation Wind Pressure Humidity
    00:00 +9°C° 0 mm 1 mps 716 mmHg 59%
    01:00 +8°C° 0 mm 1 mps 715 mmHg 58%
    02:00 +8°C° 0 mm 1 mps 715 mmHg 58%
    03:00 +8°C° 0 mm 1 mps 715 mmHg 57%
    04:00 +8°C° 0 mm 1 mps 715 mmHg 57%
    05:00 +7°C° 0 mm 1 mps 714 mmHg 56%
    06:00 +7°C° 0 mm 1 mps 714 mmHg 56%
    07:00 +8°C° 0 mm 1 mps 715 mmHg 55%
    08:00 +8°C° 0 mm 1 mps 715 mmHg 55%
    09:00 +9°C° 0 mm 1 mps 715 mmHg 55%
    10:00 +10°C° 0 mm 1 mps 715 mmHg 50%
    11:00 +12°C° 0 mm 1 mps 715 mmHg 45%
    12:00 +14°C° 0 mm 1 mps 715 mmHg 39%
    13:00 +14°C° 0 mm 1 mps 714 mmHg 39%
    14:00 +14°C° 0 mm 1 mps 714 mmHg 39%
    15:00 +14°C° 0 mm 0 mps 713 mmHg 39%
    16:00 +12°C° 0 mm 0 mps 713 mmHg 45%
    17:00 +11°C° 0 mm 0 mps 713 mmHg 50%
    18:00 +10°C° 0 mm 0 mps 713 mmHg 56%
    19:00 +9°C° 0 mm 0 mps 713 mmHg 57%
    20:00 +9°C° 0 mm 0 mps 713 mmHg 58%
    21:00 +9°C° 0 mm 0 mps 713 mmHg 58%
    22:00 +8°C° 0 mm 0 mps 713 mmHg 59%
    23:00 +8°C° 0 mm 0 mps 713 mmHg 60%
    Show more